Lynchburg, VA

10:57 PM EDT on July 20, 2017 (GMT -0400)
Lynchburg Regional-Glenn

Weather History for KLYH - February, 2013

Change the Weather History Date:

Wednesday, February 20, 2013

  Actual Average Record
Temperature  
Mean Temperature 39 °F 39 °F  
Max Temperature 47 °F 50 °F 76 °F (1930)
Min Temperature 31 °F 28 °F -11 °F (2015)
Degree Days  
Heating Degree Days 26 26  
Month to date heating degree days 547 553  
Since 1 July heating degree days 2971 3225  
Cooling Degree Days 0 0  
Month to date cooling degree days 0 0  
Year to date cooling degree days 0 0  
Moisture  
Dew Point 10 °F    
Average Humidity 33    
Maximum Humidity 41    
Minimum Humidity 25    
Precipitation  
Precipitation 0.00 in 0.10 in 0.78 in (1921)
Month to date precipitation 0.81 2.09  
Year to date precipitation 6.87 5.23  
Snow  
Snow 0.00 in - - ()
Month to date snowfall 0.5  
Since 1 July snowfall 3.3  
Snow Depth 0.00 in    
Sea Level Pressure  
Sea Level Pressure 30.04 in    
Wind  
Wind Speed 8 mph (WNW)    
Max Wind Speed 17 mph    
Max Gust Speed 25 mph    
Visibility 10 miles    
Events      
T = Trace of Precipitation, MM = Missing Value Source: NWS Daily Summary

Daily Weather History Graph

Daily Weather History Graph

Search for Another Location

Airport or City:

Trip Planner

Search our weather history database for the weather conditions in past years. The results will help you decide how hot, cold, wet, or windy it might be!

Date:

Astronomy

Feb. 20, 2013 Rise Set
Actual Time 6:59 AM EST 6:01 PM EST
Civil Twilight 6:33 AM EST 6:28 PM EST
Nautical Twilight 6:02 AM EST 6:58 PM EST
Astronomical Twilight 5:32 AM EST 7:29 PM EST
Moon 1:25 PM EST (2/20) 3:14 AM EST (2/20)
Length of Visible Light 11h 55m
Length of Day
11h 02m
Waxing Gibbous, 76% of the Moon is Illuminated
Feb 20
Waxing Gibbous
Feb 25
Full
Mar 4
Last Quarter
Mar 11
New
Mar 19
First Quarter

Hourly Weather History & Observations

Time (EST) Temp. Windchill Dew Point Humidity Pressure Visibility Wind Dir Wind Speed Gust Speed Precip Events Conditions
12:54 AM 39.2 °F 32.5 °F 14.0 °F 36% 29.93 in 10.0 mi West 10.4 mph 17.3 mph N/A   Clear
1:54 AM 39.0 °F 31.8 °F 12.0 °F 33% 29.95 in 10.0 mi West 11.5 mph 19.6 mph N/A   Clear
2:54 AM 37.9 °F 30.5 °F 10.0 °F 32% 29.95 in 10.0 mi West 11.5 mph 21.9 mph N/A   Clear
3:54 AM 36.0 °F 28.5 °F 10.0 °F 34% 29.96 in 10.0 mi West 10.4 mph 19.6 mph N/A   Clear
4:54 AM 35.1 °F 27.4 °F 9.0 °F 34% 29.97 in 10.0 mi West 10.4 mph - N/A   Clear
5:54 AM 34.0 °F 28.8 °F 9.0 °F 35% 29.99 in 10.0 mi WNW 5.8 mph 17.3 mph N/A   Clear
6:54 AM 33.8 °F 27.0 °F 8.6 °F 35% 29.99 in 10.0 mi West 8.1 mph - N/A   Clear
7:54 AM 34.0 °F 31.0 °F 9.0 °F 35% 30.02 in 10.0 mi Variable 3.5 mph - N/A   Clear
8:54 AM 36.0 °F 30.3 °F 8.1 °F 31% 30.04 in 10.0 mi NW 6.9 mph - N/A   Clear
9:54 AM 37.0 °F 29.3 °F 9.0 °F 31% 30.04 in 10.0 mi WNW 11.5 mph 19.6 mph N/A   Clear
10:54 AM 39.9 °F 36.7 °F 10.9 °F 31% 30.05 in 10.0 mi Variable 4.6 mph 16.1 mph N/A   Clear
11:54 AM 42.1 °F 36.1 °F 10.9 °F 28% 30.04 in 10.0 mi West 10.4 mph 17.3 mph N/A   Clear
12:54 PM 44.1 °F 39.5 °F 10.9 °F 26% 30.03 in 10.0 mi West 8.1 mph - N/A   Clear
1:54 PM 46.0 °F 40.2 °F 8.1 °F 21% 30.01 in 10.0 mi West 12.7 mph 21.9 mph N/A   Clear
2:54 PM 46.0 °F 41.0 °F 7.0 °F 20% 30.01 in 10.0 mi West 10.4 mph 19.6 mph N/A   Clear
3:54 PM 46.9 °F - 8.1 °F 21% 30.01 in 10.0 mi Variable 5.8 mph 19.6 mph N/A   Clear
4:54 PM 45.0 °F 39.7 °F 8.1 °F 22% 30.04 in 10.0 mi West 10.4 mph 18.4 mph N/A   Clear
5:54 PM 41.0 °F 34.3 °F 9.0 °F 27% 30.07 in 10.0 mi WNW 11.5 mph 19.6 mph N/A   Clear
6:54 PM 37.9 °F 33.5 °F 10.0 °F 32% 30.10 in 10.0 mi Variable 5.8 mph 17.3 mph N/A   Clear
7:54 PM 36.0 °F 29.6 °F 10.9 °F 36% 30.14 in 10.0 mi WNW 8.1 mph - N/A   Clear
8:54 PM 36.0 °F - 10.0 °F 34% 30.16 in 10.0 mi Calm Calm - N/A   Clear
9:54 PM 34.0 °F 28.8 °F 12.0 °F 40% 30.16 in 10.0 mi WNW 5.8 mph - N/A   Clear
10:54 PM 33.1 °F 28.7 °F 12.9 °F 43% 30.16 in 10.0 mi West 4.6 mph - N/A   Clear
11:54 PM 30.9 °F 26.2 °F 12.9 °F 47% 30.15 in 10.0 mi West 4.6 mph - N/A   Clear